Hourly Weather Ryabikino

Today, 16 May, Sunday

Time Temperature Precipitation Wind Pressure Humidity
00:00 +14°C° 0 mm 2 mps 748 mmHg 94%
01:00 +14°C° 0 mm 2 mps 748 mmHg 94%
02:00 +13°C° 0 mm 2 mps 748 mmHg 95%
03:00 +13°C° 0 mm 2 mps 748 mmHg 95%
04:00 +13°C° 0 mm 2 mps 749 mmHg 94%
05:00 +14°C° 0 mm 2 mps 749 mmHg 94%
06:00 +14°C° 0 mm 1 mps 749 mmHg 93%
07:00 +16°C° 0 mm 2 mps 749 mmHg 85%
08:00 +18°C° 0 mm 2 mps 749 mmHg 77%
09:00 +20°C° 0 mm 2 mps 750 mmHg 70%
10:00 +21°C° 0 mm 3 mps 750 mmHg 64%
11:00 +22°C° 0 mm 3 mps 750 mmHg 57%
12:00 +24°C° 0 mm 3 mps 750 mmHg 51%
13:00 +25°C° 0 mm 3 mps 750 mmHg 50%
14:00 +25°C° 0 mm 3 mps 750 mmHg 48%
15:00 +25°C° 0 mm 3 mps 750 mmHg 47%
16:00 +24°C° 0 mm 3 mps 750 mmHg 53%
17:00 +23°C° 0 mm 2 mps 750 mmHg 59%
18:00 +23°C° 0 mm 1 mps 750 mmHg 66%
19:00 +21°C° 0 mm 1 mps 750 mmHg 71%
20:00 +19°C° 0 mm 1 mps 750 mmHg 76%
21:00 +15°C° 0 mm 0 mps 750 mmHg 81%
22:00 +15°C° 0 mm 0 mps 750 mmHg 83%
23:00 +14°C° 0 mm 0 mps 750 mmHg 85%

Tomorrow, 17 May, Monday

Time Temperature Precipitation Wind Pressure Humidity
00:00 +14°C° 0 mm 0 mps 750 mmHg 86%
01:00 +15°C° 0 mm 1 mps 751 mmHg 87%
02:00 +14°C° 0 mm 1 mps 751 mmHg 88%
03:00 +14°C° 0 mm 1 mps 751 mmHg 89%
04:00 +15°C° 0 mm 1 mps 751 mmHg 87%
05:00 +15°C° 0 mm 1 mps 751 mmHg 85%
06:00 +16°C° 0 mm 1 mps 751 mmHg 84%
07:00 +18°C° 0 mm 2 mps 751 mmHg 75%
08:00 +20°C° 0 mm 2 mps 751 mmHg 67%
09:00 +22°C° 0 mm 3 mps 751 mmHg 59%
10:00 +25°C° 0 mm 3 mps 751 mmHg 56%
11:00 +26°C° 0 mm 3 mps 751 mmHg 52%
12:00 +28°C° 0 mm 4 mps 751 mmHg 49%
13:00 +28°C° 0 mm 4 mps 750 mmHg 48%
14:00 +29°C° 0 mm 4 mps 750 mmHg 47%
15:00 +29°C° 0 mm 4 mps 750 mmHg 46%
16:00 +28°C° 0 mm 4 mps 750 mmHg 50%
17:00 +27°C° 0 mm 3 mps 749 mmHg 54%
18:00 +26°C° 0 mm 3 mps 749 mmHg 59%
19:00 +24°C° 0 mm 3 mps 749 mmHg 67%
20:00 +20°C° 0 mm 3 mps 749 mmHg 75%
21:00 +18°C° 0 mm 2 mps 749 mmHg 83%
22:00 +18°C° 0 mm 2 mps 749 mmHg 85%
23:00 +17°C° 0 mm 2 mps 749 mmHg 86%

Day after tomorrow, 18 May, Tuesday

Time Temperature Precipitation Wind Pressure Humidity
00:00 +17°C° 0 mm 2 mps 749 mmHg 88%
01:00 +17°C° 0 mm 3 mps 749 mmHg 85%
02:00 +17°C° 0 mm 3 mps 749 mmHg 81%
03:00 +17°C° 0 mm 3 mps 749 mmHg 78%
04:00 +17°C° 0 mm 3 mps 749 mmHg 74%
05:00 +17°C° 0 mm 3 mps 749 mmHg 71%
06:00 +17°C° 0 mm 3 mps 749 mmHg 67%
07:00 +20°C° 0 mm 4 mps 749 mmHg 60%
08:00 +22°C° 0 mm 4 mps 749 mmHg 53%
09:00 +25°C° 0 mm 4 mps 749 mmHg 46%
10:00 +26°C° 0 mm 5 mps 749 mmHg 42%
11:00 +27°C° 0 mm 5 mps 749 mmHg 39%
12:00 +29°C° 0 mm 5 mps 749 mmHg 35%
13:00 +29°C° 0 mm 5 mps 748 mmHg 35%
14:00 +29°C° 0 mm 5 mps 748 mmHg 35%
15:00 +30°C° 0 mm 5 mps 748 mmHg 34%
16:00 +29°C° 0 mm 5 mps 748 mmHg 40%
17:00 +28°C° 0 mm 5 mps 748 mmHg 45%
18:00 +27°C° 0 mm 5 mps 747 mmHg 50%
19:00 +25°C° 0 mm 4 mps 747 mmHg 57%
20:00 +23°C° 0 mm 4 mps 747 mmHg 63%
21:00 +21°C° 0 mm 4 mps 747 mmHg 70%
22:00 +21°C° 0 mm 4 mps 747 mmHg 70%
23:00 +20°C° 0 mm 4 mps 747 mmHg 70%

19 May, Wednesday

Time Temperature Precipitation Wind Pressure Humidity
00:00 +20°C° 0 mm 4 mps 747 mmHg 69%
01:00 +19°C° 0 mm 4 mps 747 mmHg 66%
02:00 +19°C° 0 mm 4 mps 747 mmHg 63%
03:00 +19°C° 0 mm 4 mps 747 mmHg 60%
04:00 +19°C° 0 mm 4 mps 746 mmHg 60%
05:00 +19°C° 0 mm 4 mps 746 mmHg 61%
06:00 +19°C° 0 mm 5 mps 746 mmHg 61%
07:00 +20°C° 0 mm 5 mps 746 mmHg 56%
08:00 +22°C° 0 mm 5 mps 746 mmHg 51%
09:00 +25°C° 0 mm 5 mps 746 mmHg 46%
10:00 +26°C° 0 mm 5 mps 746 mmHg 43%
11:00 +28°C° 0 mm 6 mps 746 mmHg 40%
12:00 +29°C° 0 mm 6 mps 745 mmHg 37%
13:00 +29°C° 0 mm 6 mps 745 mmHg 39%
14:00 +30°C° 0 mm 6 mps 745 mmHg 41%
15:00 +30°C° 0 mm 6 mps 744 mmHg 44%
16:00 +28°C° 0.1 mm 6 mps 744 mmHg 50%
17:00 +27°C° 0.1 mm 5 mps 744 mmHg 56%
18:00 +25°C° 0.1 mm 4 mps 745 mmHg 62%
19:00 +22°C° 0.2 mm 4 mps 745 mmHg 71%
20:00 +20°C° 0.2 mm 3 mps 745 mmHg 80%
21:00 +18°C° 0.2 mm 2 mps 745 mmHg 89%
22:00 +17°C° 0.2 mm 2 mps 745 mmHg 91%
23:00 +16°C° 0.2 mm 2 mps 745 mmHg 93%

20 May, Thursday

Time Temperature Precipitation Wind Pressure Humidity
00:00 +16°C° 0.2 mm 2 mps 745 mmHg 95%
01:00 +16°C° 0.5 mm 3 mps 745 mmHg 95%
02:00 +16°C° 0.5 mm 3 mps 744 mmHg 95%
03:00 +16°C° 0.5 mm 3 mps 744 mmHg 94%
04:00 +14°C° 0.1 mm 3 mps 744 mmHg 94%
05:00 +14°C° 0.1 mm 3 mps 744 mmHg 93%
06:00 +14°C° 0.1 mm 4 mps 744 mmHg 93%
07:00 +15°C° 0.1 mm 4 mps 744 mmHg 87%
08:00 +15°C° 0.1 mm 5 mps 744 mmHg 81%
09:00 +16°C° 0.1 mm 5 mps 744 mmHg 75%
10:00 +16°C° 0.3 mm 5 mps 744 mmHg 75%
11:00 +16°C° 0.3 mm 5 mps 744 mmHg 75%
12:00 +15°C° 0.3 mm 5 mps 744 mmHg 75%
13:00 +16°C° 0.4 mm 5 mps 744 mmHg 74%
14:00 +16°C° 0.4 mm 5 mps 744 mmHg 73%
15:00 +16°C° 0.4 mm 6 mps 744 mmHg 72%
16:00 +15°C° 0.6 mm 5 mps 745 mmHg 78%
17:00 +14°C° 0.6 mm 5 mps 745 mmHg 84%
18:00 +13°C° 0.6 mm 5 mps 745 mmHg 89%
19:00 +12°C° 0 mm 5 mps 745 mmHg 89%
20:00 +12°C° 0 mm 5 mps 746 mmHg 89%
21:00 +10°C° 0 mm 5 mps 746 mmHg 89%
22:00 +11°C° 0.1 mm 4 mps 746 mmHg 90%
23:00 +11°C° 0.1 mm 4 mps 747 mmHg 90%

21 May, Friday

Time Temperature Precipitation Wind Pressure Humidity
00:00 +11°C° 0.1 mm 4 mps 747 mmHg 90%
01:00 +11°C° 0 mm 4 mps 747 mmHg 90%
02:00 +11°C° 0 mm 4 mps 748 mmHg 90%
03:00 +11°C° 0 mm 4 mps 748 mmHg 89%
04:00 +11°C° 0 mm 4 mps 748 mmHg 89%
05:00 +11°C° 0 mm 3 mps 749 mmHg 89%
06:00 +11°C° 0 mm 3 mps 749 mmHg 89%
07:00 +12°C° 0 mm 3 mps 749 mmHg 80%
08:00 +14°C° 0 mm 3 mps 750 mmHg 72%
09:00 +16°C° 0 mm 3 mps 750 mmHg 64%
10:00 +17°C° 0 mm 4 mps 750 mmHg 60%
11:00 +19°C° 0 mm 4 mps 750 mmHg 57%
12:00 +20°C° 0 mm 4 mps 750 mmHg 54%
13:00 +19°C° 0.2 mm 4 mps 749 mmHg 64%
14:00 +18°C° 0.2 mm 4 mps 748 mmHg 74%
15:00 +15°C° 0.2 mm 4 mps 748 mmHg 84%
16:00 +17°C° 0.1 mm 5 mps 747 mmHg 81%
17:00 +19°C° 0.1 mm 6 mps 746 mmHg 78%
18:00 +20°C° 0.1 mm 7 mps 745 mmHg 75%
19:00 +19°C° 0.5 mm 6 mps 745 mmHg 81%
20:00 +17°C° 0.5 mm 5 mps 745 mmHg 87%
21:00 +18°C° 0.5 mm 4 mps 745 mmHg 92%
22:00 +17°C° 0.1 mm 4 mps 745 mmHg 92%
23:00 +15°C° 0.1 mm 4 mps 746 mmHg 92%
Show more